sat.trackr.live / text

‹ back to catalog

STARLINK-30803

NORAD 58157 · 2023-166H

PAYLOAD ACTIVE UNKNOWN

§ Identity

Operator
Country
US
Launch date
2023-10-29
Launch site
AFWTR
Launch vehicle
Mass (kg)
RCS (m²)

Purposes: comms

External: N2YO · Heavens-Above · Gunter

§ Orbital elements

Epoch: 2026-05-25T04:18:00.440064Z

Period
94.01 min
Inclination
53.1597°
Eccentricity
0.0000968
Mean motion
15.31715225 rev/d
Perigee alt
470.0 km
Apogee alt
471.4 km
Semi-major
6,848.8 km
B*
1.2896e-4
RAAN
224.0662°
Arg perigee
86.2171°
Mean anomaly
273.8941°
Rev number
14,474

§ Raw data

STARLINK-308031 58157U 23166H   26145.17917176  .00003641  00000+0  12896-3 0  99932 58157  53.1597 224.0662 0000968  86.2171 273.8941 15.31715225144744

JSON: /api/v1/satellites/58157 · /tle

For live sub-satellite position, see the globe view (requires WebGL).

§ Visibility from observer

Set your observer location to see the next 7 days of passes ≥ 10°. The values pass through the URL so the page stays shareable.

No JS? Fill the form by hand. The geolocation button needs JavaScript.